Time,TemperatureF,DewpointF,PressureIn,WindDirection,WindDirectionDegrees,WindSpeedMPH,WindSpeedGustMPH,Humidity,HourlyPrecipIn,Conditions,Clouds,dailyrainin,SoftwareType,DateUTC
2013-06-19 00:03:00,53.6,28.6,29.96,SW,225,2.7,2.7,38,0.00,,,0.00,VWS V14.01,2013-06-19 07:03:00,
2013-06-19 00:08:00,53.4,28.5,29.96,SSW,209,3.6,3.6,38,0.00,,,0.00,VWS V14.01,2013-06-19 07:08:00,
2013-06-19 00:13:00,53.4,28.5,29.96,West,264,0.0,0.0,38,0.00,,,0.00,VWS V14.01,2013-06-19 07:13:00,
2013-06-19 00:18:00,53.4,28.5,29.96,SE,140,0.0,2.7,38,0.00,,,0.00,VWS V14.01,2013-06-19 07:18:00,
2013-06-19 00:23:00,53.1,28.1,29.96,SE,136,0.0,2.7,38,0.00,,,0.00,VWS V14.01,2013-06-19 07:23:00,
2013-06-19 00:28:00,53.1,28.1,29.96,South,179,0.0,0.0,38,0.00,,,0.00,VWS V14.01,2013-06-19 07:28:00,
2013-06-19 00:33:00,52.9,28.0,29.96,SSE,166,2.7,2.7,38,0.00,,,0.00,VWS V14.01,2013-06-19 07:33:00,
2013-06-19 00:38:00,52.7,28.5,29.96,SW,223,0.0,0.0,39,0.00,,,0.00,VWS V14.01,2013-06-19 07:38:00,
2013-06-19 00:43:00,52.7,28.5,29.96,SW,224,0.0,0.0,39,0.00,,,0.00,VWS V14.01,2013-06-19 07:43:00,
2013-06-19 00:48:00,52.7,28.5,29.96,SW,224,0.0,2.2,39,0.00,,,0.00,VWS V14.01,2013-06-19 07:48:00,
2013-06-19 00:53:00,52.9,28.6,29.96,SW,224,0.0,0.0,39,0.00,,,0.00,VWS V14.01,2013-06-19 07:53:00,
2013-06-19 00:58:00,52.9,28.6,29.96,SW,224,0.0,0.0,39,0.00,,,0.00,VWS V14.01,2013-06-19 07:58:00,
2013-06-19 01:04:00,52.7,28.5,29.96,SW,224,0.0,0.0,39,0.00,,,0.00,VWS V14.01,2013-06-19 08:04:00,
2013-06-19 01:09:00,52.7,28.5,29.96,SW,224,0.0,0.0,39,0.00,,,0.00,VWS V14.01,2013-06-19 08:09:00,
2013-06-19 01:14:00,52.7,28.5,29.96,South,184,2.2,3.1,39,0.00,,,0.00,VWS V14.01,2013-06-19 08:14:00,
2013-06-19 01:19:00,52.7,28.5,29.96,SW,215,2.2,2.7,39,0.00,,,0.00,VWS V14.01,2013-06-19 08:19:00,
2013-06-19 01:24:00,52.5,28.3,29.96,SW,217,0.0,2.2,39,0.00,,,0.00,VWS V14.01,2013-06-19 08:24:00,
2013-06-19 01:29:00,52.5,28.3,29.96,West,268,2.7,3.1,39,0.00,,,0.00,VWS V14.01,2013-06-19 08:29:00,
2013-06-19 01:34:00,52.5,28.9,29.96,WSW,245,0.0,0.0,40,0.00,,,0.00,VWS V14.01,2013-06-19 08:34:00,
2013-06-19 01:39:00,52.5,28.9,29.96,SSW,197,0.0,3.1,40,0.00,,,0.00,VWS V14.01,2013-06-19 08:39:00,
2013-06-19 01:44:00,52.5,28.9,29.96,NNE,26,2.2,2.7,40,0.00,,,0.00,VWS V14.01,2013-06-19 08:44:00,
2013-06-19 01:49:00,52.5,28.9,29.96,SE,137,2.7,2.7,40,0.00,,,0.00,VWS V14.01,2013-06-19 08:49:00,
2013-06-19 01:54:00,52.5,28.9,29.96,West,259,0.0,0.0,40,0.00,,,0.00,VWS V14.01,2013-06-19 08:54:00,
2013-06-19 01:59:00,52.3,28.8,29.96,ENE,61,3.6,3.6,40,0.00,,,0.00,VWS V14.01,2013-06-19 08:59:00,
2013-06-19 02:04:00,52.5,28.9,29.96,NW,316,0.0,0.0,40,0.00,,,0.00,VWS V14.01,2013-06-19 09:04:00,
2013-06-19 02:09:00,52.5,28.3,29.96,West,273,2.7,2.7,39,0.00,,,0.00,VWS V14.01,2013-06-19 09:09:00,
2013-06-19 02:14:00,52.5,28.3,29.96,North,357,0.0,0.0,39,0.00,,,0.00,VWS V14.01,2013-06-19 09:14:00,
2013-06-19 02:19:00,52.5,27.7,29.96,West,277,3.1,3.1,38,0.00,,,0.00,VWS V14.01,2013-06-19 09:19:00,
2013-06-19 02:24:00,52.5,27.7,29.96,NNW,331,0.0,0.0,38,0.00,,,0.00,VWS V14.01,2013-06-19 09:24:00,
2013-06-19 02:29:00,52.3,27.5,29.96,NW,318,0.0,0.0,38,0.00,,,0.00,VWS V14.01,2013-06-19 09:29:00,
2013-06-19 02:34:00,52.3,27.5,29.96,North,353,3.1,3.1,38,0.00,,,0.00,VWS V14.01,2013-06-19 09:34:00,
2013-06-19 02:39:00,52.5,26.4,29.96,NW,305,2.7,2.7,36,0.00,,,0.00,VWS V14.01,2013-06-19 09:39:00,
2013-06-19 02:44:00,53.1,26.8,29.96,WNW,284,2.2,2.7,36,0.00,,,0.00,VWS V14.01,2013-06-19 09:44:00,
2013-06-19 02:49:00,53.1,26.8,29.96,SW,221,2.2,2.2,36,0.00,,,0.00,VWS V14.01,2013-06-19 09:49:00,
2013-06-19 02:54:00,52.9,26.7,29.96,WNW,289,2.7,2.7,36,0.00,,,0.00,VWS V14.01,2013-06-19 09:54:00,
2013-06-19 02:59:00,52.7,26.5,29.96,WSW,252,2.2,2.7,36,0.00,,,0.00,VWS V14.01,2013-06-19 09:59:00,
2013-06-19 03:04:00,52.5,26.4,29.96,SW,232,0.0,2.2,36,0.00,,,0.00,VWS V14.01,2013-06-19 10:04:00,
2013-06-19 03:09:00,52.3,26.2,29.96,SW,229,0.0,0.0,36,0.00,,,0.00,VWS V14.01,2013-06-19 10:09:00,
2013-06-19 03:14:00,52.2,26.0,29.96,SW,221,0.0,0.0,36,0.00,,,0.00,VWS V14.01,2013-06-19 10:14:00,
2013-06-19 03:19:00,52.0,25.9,29.93,SW,228,2.7,3.1,36,0.00,,,0.00,VWS V14.01,2013-06-19 10:19:00,
2013-06-19 03:24:00,52.0,26.5,29.93,WSW,237,0.0,0.0,37,0.00,,,0.00,VWS V14.01,2013-06-19 10:24:00,
2013-06-19 03:29:00,51.8,26.4,29.93,WSW,237,0.0,0.0,37,0.00,,,0.00,VWS V14.01,2013-06-19 10:29:00,
2013-06-19 03:34:00,51.6,26.2,29.96,WSW,237,0.0,0.0,37,0.00,,,0.00,VWS V14.01,2013-06-19 10:34:00,
2013-06-19 03:39:00,51.6,26.2,29.96,WSW,237,0.0,0.0,37,0.00,,,0.00,VWS V14.01,2013-06-19 10:39:00,
2013-06-19 03:44:00,51.4,26.0,29.96,WSW,237,0.0,0.0,37,0.00,,,0.00,VWS V14.01,2013-06-19 10:44:00,
2013-06-19 03:49:00,51.3,26.5,29.96,WSW,237,0.0,0.0,38,0.00,,,0.00,VWS V14.01,2013-06-19 10:49:00,
2013-06-19 03:54:00,51.3,26.5,29.96,WSW,237,0.0,0.0,38,0.00,,,0.00,VWS V14.01,2013-06-19 10:54:00,
2013-06-19 04:00:00,51.3,26.5,29.96,West,268,0.0,3.1,38,0.00,,,0.00,VWS V14.01,2013-06-19 11:00:00,
2013-06-19 04:05:00,51.4,27.3,29.96,West,268,0.0,0.0,39,0.00,,,0.00,VWS V14.01,2013-06-19 11:05:00,
2013-06-19 04:10:00,51.4,27.3,29.96,SW,216,4.0,4.0,39,0.00,,,0.00,VWS V14.01,2013-06-19 11:10:00,
2013-06-19 04:15:00,51.4,27.9,29.96,SW,223,0.0,0.0,40,0.00,,,0.00,VWS V14.01,2013-06-19 11:15:00,
2013-06-19 04:20:00,51.4,27.9,29.96,West,261,0.0,0.0,40,0.00,,,0.00,VWS V14.01,2013-06-19 11:20:00,
2013-06-19 04:25:00,51.4,27.9,29.96,West,261,0.0,0.0,40,0.00,,,0.00,VWS V14.01,2013-06-19 11:25:00,
2013-06-19 04:30:00,51.4,27.9,29.96,West,261,0.0,0.0,40,0.00,,,0.00,VWS V14.01,2013-06-19 11:30:00,
2013-06-19 04:35:00,51.4,27.9,29.96,West,261,0.0,0.0,40,0.00,,,0.00,VWS V14.01,2013-06-19 11:35:00,
2013-06-19 04:40:00,51.3,27.8,29.96,West,261,0.0,0.0,40,0.00,,,0.00,VWS V14.01,2013-06-19 11:40:00,
2013-06-19 04:45:00,51.1,27.6,29.96,West,261,0.0,0.0,40,0.00,,,0.00,VWS V14.01,2013-06-19 11:45:00,
2013-06-19 04:50:00,50.9,27.5,29.96,West,261,0.0,0.0,40,0.00,,,0.00,VWS V14.01,2013-06-19 11:50:00,
2013-06-19 04:55:00,50.9,28.1,29.96,West,270,3.6,3.6,41,0.00,,,0.00,VWS V14.01,2013-06-19 11:55:00,
2013-06-19 05:00:00,51.3,28.4,29.96,WNW,301,0.0,3.1,41,0.00,,,0.00,VWS V14.01,2013-06-19 12:00:00,
2013-06-19 05:05:00,51.6,28.1,29.96,NW,324,2.7,2.7,40,0.00,,,0.00,VWS V14.01,2013-06-19 12:05:00,
2013-06-19 05:10:00,51.6,27.5,29.96,NW,324,0.0,0.0,39,0.00,,,0.00,VWS V14.01,2013-06-19 12:10:00,
2013-06-19 05:15:00,51.6,27.5,29.96,WNW,286,0.0,0.0,39,0.00,,,0.00,VWS V14.01,2013-06-19 12:15:00,
2013-06-19 05:20:00,51.4,27.3,29.96,WNW,286,4.0,4.0,39,0.00,,,0.00,VWS V14.01,2013-06-19 12:20:00,
2013-06-19 05:25:00,51.6,26.9,29.96,WNW,299,0.0,0.0,38,0.00,,,0.00,VWS V14.01,2013-06-19 12:25:00,
2013-06-19 05:30:00,51.4,26.7,29.96,NW,310,0.0,0.0,38,0.00,,,0.00,VWS V14.01,2013-06-19 12:30:00,
2013-06-19 05:35:00,51.4,26.7,29.96,WNW,303,0.0,0.0,38,0.00,,,0.00,VWS V14.01,2013-06-19 12:35:00,
2013-06-19 05:40:00,51.4,26.7,29.96,WNW,302,3.1,3.6,38,0.00,,,0.00,VWS V14.01,2013-06-19 12:40:00,
2013-06-19 05:45:00,51.4,26.7,29.96,NNW,341,0.0,0.0,38,0.00,,,0.00,VWS V14.01,2013-06-19 12:45:00,
2013-06-19 05:50:00,51.4,26.0,29.96,NNW,341,0.0,0.0,37,0.00,,,0.00,VWS V14.01,2013-06-19 12:50:00,
2013-06-19 05:55:00,51.3,25.9,29.96,NNW,340,0.0,0.0,37,0.00,,,0.00,VWS V14.01,2013-06-19 12:55:00,
2013-06-19 06:00:00,51.1,25.7,29.96,NNW,341,0.0,0.0,37,0.00,,,0.00,VWS V14.01,2013-06-19 13:00:00,
2013-06-19 06:05:00,50.7,25.4,29.96,NNW,341,0.0,0.0,37,0.00,,,0.00,VWS V14.01,2013-06-19 13:05:00,
2013-06-19 06:10:00,50.4,25.1,29.96,NNW,341,0.0,0.0,37,0.00,,,0.00,VWS V14.01,2013-06-19 13:10:00,
2013-06-19 06:15:00,50.4,25.7,29.96,NNW,341,0.0,0.0,38,0.00,,,0.00,VWS V14.01,2013-06-19 13:15:00,
2013-06-19 06:20:00,50.4,25.7,29.96,NNW,341,0.0,0.0,38,0.00,,,0.00,VWS V14.01,2013-06-19 13:20:00,
2013-06-19 06:25:00,50.7,26.0,29.96,West,280,2.7,2.7,38,0.00,,,0.00,VWS V14.01,2013-06-19 13:25:00,
2013-06-19 06:30:00,50.9,26.2,29.96,WNW,283,0.0,0.0,38,0.00,,,0.00,VWS V14.01,2013-06-19 13:30:00,
2013-06-19 06:35:00,51.3,27.2,29.99,NW,311,3.1,3.1,39,0.00,,,0.00,VWS V14.01,2013-06-19 13:35:00,
2013-06-19 06:40:00,51.6,27.5,29.99,North,353,2.2,3.6,39,0.00,,,0.00,VWS V14.01,2013-06-19 13:40:00,
2013-06-19 06:45:00,51.8,27.0,29.99,NNW,336,0.0,2.2,38,0.00,,,0.00,VWS V14.01,2013-06-19 13:45:00,
2013-06-19 06:51:00,52.0,26.5,29.99,West,272,2.2,3.6,37,0.00,,,0.00,VWS V14.01,2013-06-19 13:51:00,
2013-06-19 06:56:00,52.2,26.7,29.99,NNW,336,2.2,2.2,37,0.00,,,0.00,VWS V14.01,2013-06-19 13:56:00,
2013-06-19 07:01:00,52.5,27.0,29.99,North,357,0.0,0.0,37,0.00,,,0.00,VWS V14.01,2013-06-19 14:01:00,
2013-06-19 07:06:00,53.1,27.5,29.99,NNE,21,0.0,2.7,37,0.00,,,0.00,VWS V14.01,2013-06-19 14:06:00,
2013-06-19 07:11:00,53.1,26.8,29.99,NW,319,0.0,0.0,36,0.00,,,0.00,VWS V14.01,2013-06-19 14:11:00,
2013-06-19 07:16:00,53.6,27.3,29.99,NW,319,0.0,0.0,36,0.00,,,0.00,VWS V14.01,2013-06-19 14:16:00,
2013-06-19 07:21:00,54.7,28.3,29.99,NW,319,2.2,2.2,36,0.00,,,0.00,VWS V14.01,2013-06-19 14:21:00,
2013-06-19 07:26:00,55.0,26.5,29.99,NW,305,0.0,2.7,33,0.00,,,0.00,VWS V14.01,2013-06-19 14:26:00,
2013-06-19 07:31:00,55.8,27.1,29.99,NNW,340,0.0,0.0,33,0.00,,,0.00,VWS V14.01,2013-06-19 14:31:00,
2013-06-19 07:36:00,56.7,27.9,29.99,NNW,340,0.0,0.0,33,0.00,,,0.00,VWS V14.01,2013-06-19 14:36:00,
2013-06-19 07:41:00,57.0,26.7,29.99,NNW,340,0.0,0.0,31,0.00,,,0.00,VWS V14.01,2013-06-19 14:41:00,
2013-06-19 07:46:00,56.8,23.2,29.99,NW,304,3.1,3.1,27,0.00,,,0.00,VWS V14.01,2013-06-19 14:46:00,
2013-06-19 07:51:00,56.7,22.2,29.99,West,275,3.1,3.1,26,0.00,,,0.00,VWS V14.01,2013-06-19 14:51:00,
2013-06-19 07:56:00,56.7,22.2,29.99,West,272,0.0,2.7,26,0.00,,,0.00,VWS V14.01,2013-06-19 14:56:00,
2013-06-19 08:01:00,56.7,22.2,29.99,West,278,3.1,3.1,26,0.00,,,0.00,VWS V14.01,2013-06-19 15:01:00,
2013-06-19 08:06:00,56.7,21.3,29.99,WNW,285,3.6,5.4,25,0.00,,,0.00,VWS V14.01,2013-06-19 15:06:00,
2013-06-19 08:11:00,56.7,21.3,29.99,NW,308,2.7,4.0,25,0.00,,,0.00,VWS V14.01,2013-06-19 15:11:00,
2013-06-19 08:16:00,57.0,18.6,29.99,WNW,296,4.9,7.6,22,0.00,,,0.00,VWS V14.01,2013-06-19 15:16:00,
2013-06-19 08:21:00,57.2,15.3,29.99,WSW,258,2.7,4.0,19,0.00,,,0.00,VWS V14.01,2013-06-19 15:21:00,
2013-06-19 08:26:00,57.2,15.3,29.99,WNW,300,2.7,3.1,19,0.00,,,0.00,VWS V14.01,2013-06-19 15:26:00,
2013-06-19 08:31:00,57.2,12.8,29.99,West,268,8.1,8.1,17,0.00,,,0.00,VWS V14.01,2013-06-19 15:31:00,
2013-06-19 08:36:00,57.2,12.8,29.99,West,267,3.6,4.9,17,0.00,,,0.00,VWS V14.01,2013-06-19 15:36:00,
2013-06-19 08:41:00,57.6,13.1,29.99,West,271,4.9,5.8,17,0.00,,,0.00,VWS V14.01,2013-06-19 15:41:00,
2013-06-19 08:46:00,57.9,13.4,29.99,NW,307,4.0,4.0,17,0.00,,,0.00,VWS V14.01,2013-06-19 15:46:00,
2013-06-19 08:51:00,58.3,13.7,29.99,WNW,299,3.1,4.5,17,0.00,,,0.00,VWS V14.01,2013-06-19 15:51:00,
2013-06-19 08:56:00,58.5,9.5,29.99,NW,308,4.0,5.4,14,0.00,,,0.00,VWS V14.01,2013-06-19 15:56:00,
2013-06-19 09:02:00,58.8,9.8,29.99,West,271,7.2,7.2,14,0.00,,,0.00,VWS V14.01,2013-06-19 16:02:00,
2013-06-19 09:07:00,58.6,9.6,29.99,NNE,31,3.6,4.9,14,0.00,,,0.00,VWS V14.01,2013-06-19 16:07:00,
2013-06-19 09:12:00,59.0,9.9,29.99,West,270,6.3,6.3,14,0.00,,,0.00,VWS V14.01,2013-06-19 16:12:00,
2013-06-19 09:17:00,59.2,10.0,29.99,WNW,292,4.0,5.4,14,0.00,,,0.00,VWS V14.01,2013-06-19 16:17:00,
2013-06-19 09:22:00,59.7,10.5,29.99,WNW,284,2.7,2.7,14,0.00,,,0.00,VWS V14.01,2013-06-19 16:22:00,
2013-06-19 09:27:00,60.3,10.9,29.99,West,281,3.1,3.1,14,0.00,,,0.00,VWS V14.01,2013-06-19 16:27:00,
2013-06-19 09:32:00,60.4,11.0,29.99,NW,307,6.3,6.3,14,0.00,,,0.00,VWS V14.01,2013-06-19 16:32:00,
2013-06-19 09:37:00,60.4,11.0,29.99,WNW,292,3.1,3.6,14,0.00,,,0.00,VWS V14.01,2013-06-19 16:37:00,
2013-06-19 09:42:00,60.4,11.0,29.99,NNW,329,3.6,5.8,14,0.00,,,0.00,VWS V14.01,2013-06-19 16:42:00,
2013-06-19 09:47:00,60.8,11.3,29.99,WNW,300,4.9,4.9,14,0.00,,,0.00,VWS V14.01,2013-06-19 16:47:00,
2013-06-19 09:52:00,61.2,11.6,29.99,West,264,4.9,5.4,14,0.00,,,0.00,VWS V14.01,2013-06-19 16:52:00,
2013-06-19 09:57:00,61.5,6.5,29.99,NNW,335,3.1,3.6,11,0.00,,,0.00,VWS V14.01,2013-06-19 16:57:00,
2013-06-19 10:02:00,62.2,7.1,29.99,West,265,7.6,7.6,11,0.00,,,0.00,VWS V14.01,2013-06-19 17:02:00,
2013-06-19 10:07:00,62.2,7.1,29.99,WNW,290,5.4,5.4,11,0.00,,,0.00,VWS V14.01,2013-06-19 17:07:00,
2013-06-19 10:12:00,62.4,7.2,29.99,West,276,2.7,2.7,11,0.00,,,0.00,VWS V14.01,2013-06-19 17:12:00,
2013-06-19 10:17:00,62.6,7.4,29.99,NW,320,4.0,4.0,11,0.00,,,0.00,VWS V14.01,2013-06-19 17:17:00,
2013-06-19 10:22:00,62.8,7.5,29.99,SSW,209,4.0,4.0,11,0.00,,,0.00,VWS V14.01,2013-06-19 17:22:00,
2013-06-19 10:27:00,63.1,7.8,29.99,SW,227,3.6,3.6,11,0.00,,,0.00,VWS V14.01,2013-06-19 17:27:00,
2013-06-19 10:32:00,63.5,8.1,29.99,West,279,5.4,5.4,11,0.00,,,0.00,VWS V14.01,2013-06-19 17:32:00,
2013-06-19 10:37:00,63.9,8.4,29.99,WSW,256,5.8,5.8,11,0.00,,,0.00,VWS V14.01,2013-06-19 17:37:00,
2013-06-19 10:42:00,64.2,8.6,29.99,WNW,283,2.7,2.7,11,0.00,,,0.00,VWS V14.01,2013-06-19 17:42:00,
2013-06-19 10:47:00,64.6,6.8,29.99,SW,223,4.0,4.0,10,0.00,,,0.00,VWS V14.01,2013-06-19 17:47:00,
2013-06-19 10:52:00,64.8,6.9,29.99,WSW,241,2.7,2.7,10,0.00,,,0.00,VWS V14.01,2013-06-19 17:52:00,
2013-06-19 10:57:00,65.5,7.5,29.99,West,269,3.6,4.0,10,0.00,,,0.00,VWS V14.01,2013-06-19 17:57:00,
2013-06-19 11:02:00,65.1,7.2,29.99,SSW,208,4.9,5.8,10,0.00,,,0.00,VWS V14.01,2013-06-19 18:02:00,
2013-06-19 11:07:00,64.8,6.9,29.99,WSW,256,3.1,5.4,10,0.00,,,0.00,VWS V14.01,2013-06-19 18:07:00,
2013-06-19 11:12:00,65.3,7.4,29.99,WNW,298,6.3,6.3,10,0.00,,,0.00,VWS V14.01,2013-06-19 18:12:00,
2013-06-19 11:17:00,65.3,7.4,29.99,SW,223,2.7,5.4,10,0.00,,,0.00,VWS V14.01,2013-06-19 18:17:00,
2013-06-19 11:22:00,65.5,7.5,29.99,West,265,2.2,5.8,10,0.00,,,0.00,VWS V14.01,2013-06-19 18:22:00,
2013-06-19 11:27:00,65.7,7.6,29.99,WSW,250,4.9,5.4,10,0.00,,,0.00,VWS V14.01,2013-06-19 18:27:00,
2013-06-19 11:32:00,66.2,8.1,29.99,SSW,213,3.6,3.6,10,0.00,,,0.00,VWS V14.01,2013-06-19 18:32:00,
2013-06-19 11:37:00,66.6,8.3,29.99,SW,228,3.1,5.4,10,0.00,,,0.00,VWS V14.01,2013-06-19 18:37:00,
2013-06-19 11:42:00,66.7,8.5,29.99,SSW,195,2.7,3.6,10,0.00,,,0.00,VWS V14.01,2013-06-19 18:42:00,
2013-06-19 11:48:00,66.9,8.6,29.99,SSW,207,5.4,5.8,10,0.00,,,0.00,VWS V14.01,2013-06-19 18:48:00,
2013-06-19 11:53:00,66.9,8.6,30.02,SSW,211,3.6,5.8,10,0.00,,,0.00,VWS V14.01,2013-06-19 18:53:00,
2013-06-19 11:58:00,66.9,8.6,30.02,South,169,0.0,4.0,10,0.00,,,0.00,VWS V14.01,2013-06-19 18:58:00,
2013-06-19 12:03:00,66.7,8.5,30.02,SSW,207,0.0,0.0,10,0.00,,,0.00,VWS V14.01,2013-06-19 19:03:00,
2013-06-19 12:08:00,67.3,8.9,30.02,West,259,4.0,4.0,10,0.00,,,0.00,VWS V14.01,2013-06-19 19:08:00,
2013-06-19 12:13:00,67.5,9.0,30.02,West,277,4.0,5.8,10,0.00,,,0.00,VWS V14.01,2013-06-19 19:13:00,
2013-06-19 12:18:00,67.6,9.1,30.02,SW,232,5.8,8.3,10,0.00,,,0.00,VWS V14.01,2013-06-19 19:18:00,
2013-06-19 12:23:00,67.5,9.0,30.02,SSE,162,2.2,2.2,10,0.00,,,0.00,VWS V14.01,2013-06-19 19:23:00,
2013-06-19 12:28:00,67.6,9.1,30.02,SSW,210,4.0,4.0,10,0.00,,,0.00,VWS V14.01,2013-06-19 19:28:00,
2013-06-19 12:33:00,68.2,9.6,30.02,SW,217,4.0,4.0,10,0.00,,,0.00,VWS V14.01,2013-06-19 19:33:00,
2013-06-19 12:38:00,68.5,9.8,29.99,SSE,167,3.6,5.8,10,0.00,,,0.00,VWS V14.01,2013-06-19 19:38:00,
2013-06-19 12:43:00,69.1,10.3,29.99,WSW,237,5.8,5.8,10,0.00,,,0.00,VWS V14.01,2013-06-19 19:43:00,
2013-06-19 12:48:00,69.3,10.4,29.99,SW,228,5.8,5.8,10,0.00,,,0.00,VWS V14.01,2013-06-19 19:48:00,
2013-06-19 12:53:00,69.3,10.4,29.99,South,190,5.8,5.8,10,0.00,,,0.00,VWS V14.01,2013-06-19 19:53:00,
2013-06-19 12:58:00,69.3,10.4,29.99,South,189,5.4,5.4,10,0.00,,,0.00,VWS V14.01,2013-06-19 19:58:00,
2013-06-19 13:03:00,69.4,10.5,29.99,South,174,3.1,4.9,10,0.00,,,0.00,VWS V14.01,2013-06-19 20:03:00,
2013-06-19 13:08:00,69.4,10.5,29.99,ESE,106,2.7,3.1,10,0.00,,,0.00,VWS V14.01,2013-06-19 20:08:00,
2013-06-19 13:13:00,69.1,10.3,29.99,South,171,5.4,5.4,10,0.00,,,0.00,VWS V14.01,2013-06-19 20:13:00,
2013-06-19 13:18:00,68.7,10.0,29.99,SW,230,4.9,5.4,10,0.00,,,0.00,VWS V14.01,2013-06-19 20:18:00,
2013-06-19 13:23:00,68.9,10.1,29.99,South,174,2.7,3.6,10,0.00,,,0.00,VWS V14.01,2013-06-19 20:23:00,
2013-06-19 13:28:00,69.4,10.5,29.99,SSW,209,4.0,4.0,10,0.00,,,0.00,VWS V14.01,2013-06-19 20:28:00,
2013-06-19 13:33:00,69.8,8.5,29.99,WSW,253,4.0,4.0,9,0.00,,,0.00,VWS V14.01,2013-06-19 20:33:00,
2013-06-19 13:38:00,70.0,8.6,29.99,West,264,3.6,4.9,9,0.00,,,0.00,VWS V14.01,2013-06-19 20:38:00,
2013-06-19 13:43:00,69.8,8.5,29.99,SSW,197,7.6,8.7,9,0.00,,,0.00,VWS V14.01,2013-06-19 20:43:00,
2013-06-19 13:48:00,69.4,10.5,29.99,SSW,206,2.7,4.0,10,0.00,,,0.00,VWS V14.01,2013-06-19 20:48:00,
2013-06-19 13:53:00,69.4,10.5,29.99,SSW,205,3.6,6.3,10,0.00,,,0.00,VWS V14.01,2013-06-19 20:53:00,
2013-06-19 13:58:00,70.2,8.7,29.99,SSW,200,5.4,5.4,9,0.00,,,0.00,VWS V14.01,2013-06-19 20:58:00,
2013-06-19 14:03:00,70.5,9.0,29.99,SSE,159,3.1,3.6,9,0.00,,,0.00,VWS V14.01,2013-06-19 21:03:00,
2013-06-19 14:08:00,70.7,9.1,29.99,WNW,291,3.1,6.3,9,0.00,,,0.00,VWS V14.01,2013-06-19 21:08:00,
2013-06-19 14:13:00,70.5,9.0,29.99,South,179,4.5,4.5,9,0.00,,,0.00,VWS V14.01,2013-06-19 21:13:00,
2013-06-19 14:18:00,70.7,9.1,29.99,SSW,209,5.4,5.4,9,0.00,,,0.00,VWS V14.01,2013-06-19 21:18:00,
2013-06-19 14:24:00,70.7,9.1,29.99,South,179,3.6,5.8,9,0.00,,,0.00,VWS V14.01,2013-06-19 21:24:00,
2013-06-19 14:29:00,70.5,9.0,29.99,SE,142,3.6,4.9,9,0.00,,,0.00,VWS V14.01,2013-06-19 21:29:00,
2013-06-19 14:34:00,70.7,9.1,29.99,SSW,195,3.6,5.4,9,0.00,,,0.00,VWS V14.01,2013-06-19 21:34:00,
2013-06-19 14:39:00,71.2,9.6,29.99,SSE,149,3.6,3.6,9,0.00,,,0.00,VWS V14.01,2013-06-19 21:39:00,
2013-06-19 14:44:00,71.2,9.6,29.99,SSW,197,2.7,4.0,9,0.00,,,0.00,VWS V14.01,2013-06-19 21:44:00,
2013-06-19 14:49:00,71.8,10.0,29.99,South,187,5.4,6.3,9,0.00,,,0.00,VWS V14.01,2013-06-19 21:49:00,
2013-06-19 14:54:00,72.0,10.1,29.99,SSE,159,4.0,4.0,9,0.00,,,0.00,VWS V14.01,2013-06-19 21:54:00,
2013-06-19 14:59:00,72.1,10.2,29.99,WNW,295,3.1,4.0,9,0.00,,,0.00,VWS V14.01,2013-06-19 21:59:00,
2013-06-19 15:04:00,72.7,10.6,29.96,South,180,3.1,3.1,9,0.00,,,0.00,VWS V14.01,2013-06-19 22:04:00,
2013-06-19 15:09:00,72.3,10.4,29.96,West,264,6.3,6.3,9,0.00,,,0.00,VWS V14.01,2013-06-19 22:09:00,
2013-06-19 15:14:00,72.5,10.5,29.96,SSW,207,5.4,5.4,9,0.00,,,0.00,VWS V14.01,2013-06-19 22:14:00,
2013-06-19 15:19:00,72.7,10.6,29.99,South,178,2.7,5.8,9,0.00,,,0.00,VWS V14.01,2013-06-19 22:19:00,
2013-06-19 15:24:00,73.2,11.1,29.99,East,94,8.3,8.3,9,0.00,,,0.00,VWS V14.01,2013-06-19 22:24:00,
2013-06-19 15:29:00,73.0,10.9,29.99,SSW,198,6.3,6.3,9,0.00,,,0.00,VWS V14.01,2013-06-19 22:29:00,
2013-06-19 15:34:00,73.0,10.9,29.99,SSW,193,2.2,2.7,9,0.00,,,0.00,VWS V14.01,2013-06-19 22:34:00,
2013-06-19 15:39:00,73.4,8.6,29.99,South,191,5.4,5.4,8,0.00,,,0.00,VWS V14.01,2013-06-19 22:39:00,
2013-06-19 15:44:00,73.6,8.7,29.99,WSW,244,4.0,4.0,8,0.00,,,0.00,VWS V14.01,2013-06-19 22:44:00,
2013-06-19 15:49:00,73.9,9.0,29.99,WSW,252,4.0,5.8,8,0.00,,,0.00,VWS V14.01,2013-06-19 22:49:00,
2013-06-19 15:54:00,73.9,9.0,29.99,WSW,257,5.4,7.6,8,0.00,,,0.00,VWS V14.01,2013-06-19 22:54:00,
2013-06-19 15:59:00,74.1,9.1,29.99,SW,233,7.6,7.6,8,0.00,,,0.00,VWS V14.01,2013-06-19 22:59:00,
2013-06-19 16:04:00,73.9,9.0,29.99,SSW,213,4.0,6.3,8,0.00,,,0.00,VWS V14.01,2013-06-19 23:04:00,
2013-06-19 16:09:00,73.8,8.8,29.99,SSW,200,3.6,5.8,8,0.00,,,0.00,VWS V14.01,2013-06-19 23:09:00,
2013-06-19 16:14:00,73.8,8.8,29.99,WSW,255,5.4,6.7,8,0.00,,,0.00,VWS V14.01,2013-06-19 23:14:00,
2013-06-19 16:19:00,73.9,9.0,29.96,South,172,3.6,5.8,8,0.00,,,0.00,VWS V14.01,2013-06-19 23:19:00,
2013-06-19 16:24:00,73.9,9.0,29.96,South,181,2.7,5.4,8,0.00,,,0.00,VWS V14.01,2013-06-19 23:24:00,
2013-06-19 16:29:00,73.9,9.0,29.96,WSW,247,4.5,4.5,8,0.00,,,0.00,VWS V14.01,2013-06-19 23:29:00,
2013-06-19 16:34:00,73.9,9.0,29.96,WSW,254,2.2,5.4,8,0.00,,,0.00,VWS V14.01,2013-06-19 23:34:00,
2013-06-19 16:40:00,73.9,9.0,29.96,SW,224,6.3,6.3,8,0.00,,,0.00,VWS V14.01,2013-06-19 23:40:00,
2013-06-19 16:45:00,73.2,11.1,29.96,WSW,252,4.0,5.8,9,0.00,,,0.00,VWS V14.01,2013-06-19 23:45:00,
2013-06-19 16:50:00,73.2,11.1,29.96,SW,226,3.1,5.4,9,0.00,,,0.00,VWS V14.01,2013-06-19 23:50:00,
2013-06-19 16:55:00,73.4,8.6,29.96,SSE,167,4.9,5.8,8,0.00,,,0.00,VWS V14.01,2013-06-19 23:55:00,
2013-06-19 17:00:00,73.6,8.7,29.96,SW,220,5.8,5.8,8,0.00,,,0.00,VWS V14.01,2013-06-20 00:00:00,
2013-06-19 17:05:00,73.9,9.0,29.96,SSW,200,4.0,4.0,8,0.00,,,0.00,VWS V14.01,2013-06-20 00:05:00,
2013-06-19 17:10:00,73.8,8.8,29.96,SSW,193,5.4,5.8,8,0.00,,,0.00,VWS V14.01,2013-06-20 00:10:00,
2013-06-19 17:15:00,74.1,9.1,29.96,SW,231,3.6,3.6,8,0.00,,,0.00,VWS V14.01,2013-06-20 00:15:00,
2013-06-19 17:20:00,74.1,9.1,29.96,SW,236,5.4,5.4,8,0.00,,,0.00,VWS V14.01,2013-06-20 00:20:00,
2013-06-19 17:25:00,73.8,8.8,29.96,WSW,252,4.9,4.9,8,0.00,,,0.00,VWS V14.01,2013-06-20 00:25:00,
2013-06-19 17:30:00,73.6,8.7,29.96,WSW,250,4.0,4.0,8,0.00,,,0.00,VWS V14.01,2013-06-20 00:30:00,
2013-06-19 17:35:00,73.6,8.7,29.96,WSW,250,3.1,3.1,8,0.00,,,0.00,VWS V14.01,2013-06-20 00:35:00,
2013-06-19 17:40:00,73.4,8.6,29.96,NW,310,3.6,3.6,8,0.00,,,0.00,VWS V14.01,2013-06-20 00:40:00,
2013-06-19 17:45:00,73.2,11.1,29.96,SW,230,3.1,3.1,9,0.00,,,0.00,VWS V14.01,2013-06-20 00:45:00,
2013-06-19 17:50:00,73.2,11.1,29.96,NNW,328,5.8,7.6,9,0.00,,,0.00,VWS V14.01,2013-06-20 00:50:00,
2013-06-19 17:55:00,72.3,10.4,29.96,WNW,290,6.3,6.3,9,0.00,,,0.00,VWS V14.01,2013-06-20 00:55:00,
2013-06-19 18:00:00,71.2,9.6,29.96,West,271,3.1,5.8,9,0.00,,,0.00,VWS V14.01,2013-06-20 01:00:00,
2013-06-19 18:05:00,70.5,9.0,29.96,NW,312,5.4,5.8,9,0.00,,,0.00,VWS V14.01,2013-06-20 01:05:00,
2013-06-19 18:10:00,70.5,9.0,29.96,WNW,299,4.0,5.4,9,0.00,,,0.00,VWS V14.01,2013-06-20 01:10:00,
2013-06-19 18:15:00,70.9,9.3,29.96,SSW,213,3.6,3.6,9,0.00,,,0.00,VWS V14.01,2013-06-20 01:15:00,
2013-06-19 18:20:00,71.2,9.6,29.96,WSW,254,5.4,7.6,9,0.00,,,0.00,VWS V14.01,2013-06-20 01:20:00,
2013-06-19 18:25:00,71.1,9.4,29.96,NW,306,3.1,4.0,9,0.00,,,0.00,VWS V14.01,2013-06-20 01:25:00,
2013-06-19 18:30:00,71.1,9.4,29.96,WSW,246,3.6,4.0,9,0.00,,,0.00,VWS V14.01,2013-06-20 01:30:00,
2013-06-19 18:35:00,70.7,9.1,29.96,WSW,254,2.7,3.1,9,0.00,,,0.00,VWS V14.01,2013-06-20 01:35:00,
2013-06-19 18:40:00,70.7,9.1,29.96,WSW,238,3.6,6.3,9,0.00,,,0.00,VWS V14.01,2013-06-20 01:40:00,
2013-06-19 18:45:00,70.2,8.7,29.96,WNW,283,8.3,8.3,9,0.00,,,0.00,VWS V14.01,2013-06-20 01:45:00,
2013-06-19 18:50:00,69.4,10.5,29.96,ENE,68,3.1,5.4,10,0.00,,,0.00,VWS V14.01,2013-06-20 01:50:00,
2013-06-19 18:55:00,69.1,10.3,29.96,WNW,286,3.1,4.0,10,0.00,,,0.00,VWS V14.01,2013-06-20 01:55:00,
2013-06-19 19:00:00,69.1,10.3,29.96,NNW,335,3.1,5.8,10,0.00,,,0.00,VWS V14.01,2013-06-20 02:00:00,
2013-06-19 19:05:00,68.2,9.6,29.99,West,264,4.0,4.0,10,0.00,,,0.00,VWS V14.01,2013-06-20 02:05:00,
2013-06-19 19:10:00,68.2,9.6,29.99,WNW,283,5.4,6.3,10,0.00,,,0.00,VWS V14.01,2013-06-20 02:10:00,
2013-06-19 19:15:00,67.6,9.1,29.99,West,276,3.1,5.4,10,0.00,,,0.00,VWS V14.01,2013-06-20 02:15:00,
2013-06-19 19:21:00,67.3,8.9,29.99,NNE,26,4.0,5.8,10,0.00,,,0.00,VWS V14.01,2013-06-20 02:21:00,
2013-06-19 19:26:00,66.7,8.5,29.99,NW,308,4.9,5.8,10,0.00,,,0.00,VWS V14.01,2013-06-20 02:26:00,
2013-06-19 19:31:00,66.4,8.2,29.99,West,276,4.0,5.8,10,0.00,,,0.00,VWS V14.01,2013-06-20 02:31:00,
2013-06-19 19:36:00,66.0,7.9,29.99,West,276,3.1,6.7,10,0.00,,,0.00,VWS V14.01,2013-06-20 02:36:00,
2013-06-19 19:41:00,65.8,7.8,29.99,WSW,240,3.6,5.4,10,0.00,,,0.00,VWS V14.01,2013-06-20 02:41:00,
2013-06-19 19:46:00,65.7,7.6,29.99,West,279,3.6,5.4,10,0.00,,,0.00,VWS V14.01,2013-06-20 02:46:00,
2013-06-19 19:51:00,65.1,7.2,29.99,West,280,7.6,7.6,10,0.00,,,0.00,VWS V14.01,2013-06-20 02:51:00,
2013-06-19 19:56:00,64.4,6.7,29.99,West,271,8.3,8.3,10,0.00,,,0.00,VWS V14.01,2013-06-20 02:56:00,
2013-06-19 20:01:00,63.3,7.9,29.99,West,266,8.1,8.3,11,0.00,,,0.00,VWS V14.01,2013-06-20 03:01:00,
2013-06-19 20:06:00,63.0,7.7,29.99,WNW,296,5.8,8.1,11,0.00,,,0.00,VWS V14.01,2013-06-20 03:06:00,
2013-06-19 20:11:00,62.2,7.1,29.99,West,278,6.3,10.1,11,0.00,,,0.00,VWS V14.01,2013-06-20 03:11:00,
2013-06-19 20:16:00,61.7,6.7,29.99,NW,305,2.2,4.9,11,0.00,,,0.00,VWS V14.01,2013-06-20 03:16:00,
2013-06-19 20:21:00,61.3,6.4,29.99,West,264,6.3,6.3,11,0.00,,,0.00,VWS V14.01,2013-06-20 03:21:00,
2013-06-19 20:26:00,61.0,6.1,29.99,WNW,283,2.7,5.4,11,0.00,,,0.00,VWS V14.01,2013-06-20 03:26:00,
2013-06-19 20:31:00,60.6,7.8,29.99,WNW,302,0.0,3.6,12,0.00,,,0.00,VWS V14.01,2013-06-20 03:31:00,
2013-06-19 20:36:00,60.3,7.5,29.99,NW,308,3.6,7.6,12,0.00,,,0.00,VWS V14.01,2013-06-20 03:36:00,
2013-06-19 20:41:00,59.7,7.0,29.99,NW,321,0.0,2.7,12,0.00,,,0.00,VWS V14.01,2013-06-20 03:41:00,
2013-06-19 20:46:00,59.4,6.8,29.99,NW,322,2.2,2.7,12,0.00,,,0.00,VWS V14.01,2013-06-20 03:46:00,
2013-06-19 20:51:00,59.0,6.5,29.99,NW,305,2.2,2.2,12,0.00,,,0.00,VWS V14.01,2013-06-20 03:51:00,
2013-06-19 20:56:00,58.8,6.3,29.99,NNE,28,2.7,2.7,12,0.00,,,0.00,VWS V14.01,2013-06-20 03:56:00,
2013-06-19 21:01:00,58.5,6.1,29.99,North,353,0.0,2.7,12,0.00,,,0.00,VWS V14.01,2013-06-20 04:01:00,
2013-06-19 21:02:00,58.5,6.1,29.99,North,353,0.0,0.0,12,0.00,,,0.00,VWS V14.01,2013-06-20 04:02:00,
2013-06-19 21:07:00,58.1,5.8,29.99,SSW,200,3.1,3.1,12,0.00,,,0.00,VWS V14.01,2013-06-20 04:07:00,
2013-06-19 21:12:00,58.1,5.8,29.99,West,268,4.0,4.0,12,0.00,,,0.00,VWS V14.01,2013-06-20 04:12:00,
2013-06-19 21:17:00,58.1,5.8,29.99,West,275,2.7,2.7,12,0.00,,,0.00,VWS V14.01,2013-06-20 04:17:00,
2013-06-19 21:22:00,58.1,5.8,29.99,West,281,3.1,3.1,12,0.00,,,0.00,VWS V14.01,2013-06-20 04:22:00,
2013-06-19 21:27:00,58.1,9.2,29.99,WNW,287,3.1,3.1,14,0.00,,,0.00,VWS V14.01,2013-06-20 04:27:00,
2013-06-19 21:32:00,57.9,9.0,29.99,WNW,290,0.0,3.1,14,0.00,,,0.00,VWS V14.01,2013-06-20 04:32:00,
2013-06-19 21:37:00,57.7,8.9,29.99,WSW,240,3.1,3.1,14,0.00,,,0.00,VWS V14.01,2013-06-20 04:37:00,
2013-06-19 21:42:00,57.7,8.9,29.99,West,272,3.1,3.6,14,0.00,,,0.00,VWS V14.01,2013-06-20 04:42:00,
2013-06-19 21:47:00,57.6,8.7,29.99,WNW,284,3.1,4.0,14,0.00,,,0.00,VWS V14.01,2013-06-20 04:47:00,
2013-06-19 21:52:00,57.4,8.6,29.99,WNW,299,4.9,4.9,14,0.00,,,0.00,VWS V14.01,2013-06-20 04:52:00,
2013-06-19 21:57:00,57.4,12.9,29.99,WNW,295,3.1,4.0,17,0.00,,,0.00,VWS V14.01,2013-06-20 04:57:00,
2013-06-19 22:02:00,57.2,12.8,29.99,SW,220,4.0,4.0,17,0.00,,,0.00,VWS V14.01,2013-06-20 05:02:00,
2013-06-19 22:07:00,57.2,12.8,29.99,SSW,200,4.0,4.0,17,0.00,,,0.00,VWS V14.01,2013-06-20 05:07:00,
2013-06-19 22:12:00,57.2,12.8,29.99,SSW,213,2.7,2.7,17,0.00,,,0.00,VWS V14.01,2013-06-20 05:12:00,
2013-06-19 22:17:00,57.0,12.7,29.99,SSW,196,2.7,2.7,17,0.00,,,0.00,VWS V14.01,2013-06-20 05:17:00,
2013-06-19 22:22:00,56.8,16.2,29.99,WSW,248,0.0,4.0,20,0.00,,,0.00,VWS V14.01,2013-06-20 05:22:00,
2013-06-19 22:27:00,56.8,16.2,29.99,West,260,0.0,2.7,20,0.00,,,0.00,VWS V14.01,2013-06-20 05:27:00,
2013-06-19 22:32:00,56.8,16.2,29.99,SW,224,2.2,3.1,20,0.00,,,0.00,VWS V14.01,2013-06-20 05:32:00,
2013-06-19 22:37:00,56.7,16.1,29.99,SW,222,2.7,2.7,20,0.00,,,0.00,VWS V14.01,2013-06-20 05:37:00,
2013-06-19 22:42:00,56.7,16.1,29.99,SW,221,0.0,0.0,20,0.00,,,0.00,VWS V14.01,2013-06-20 05:42:00,
2013-06-19 22:47:00,56.5,15.9,29.99,SW,222,0.0,0.0,20,0.00,,,0.00,VWS V14.01,2013-06-20 05:47:00,
2013-06-19 22:53:00,56.3,15.8,29.99,SW,221,0.0,0.0,20,0.00,,,0.00,VWS V14.01,2013-06-20 05:53:00,
2013-06-19 22:58:00,56.1,15.6,29.99,SW,222,2.2,3.1,20,0.00,,,0.00,VWS V14.01,2013-06-20 05:58:00,
2013-06-19 23:03:00,56.1,17.8,29.99,SW,221,2.2,2.2,22,0.00,,,0.00,VWS V14.01,2013-06-20 06:03:00,
2013-06-19 23:08:00,55.9,17.7,29.99,SW,221,0.0,0.0,22,0.00,,,0.00,VWS V14.01,2013-06-20 06:08:00,
2013-06-19 23:13:00,55.9,17.7,29.99,SW,221,0.0,0.0,22,0.00,,,0.00,VWS V14.01,2013-06-20 06:13:00,
2013-06-19 23:18:00,55.8,17.5,29.99,South,173,2.2,2.2,22,0.00,,,0.00,VWS V14.01,2013-06-20 06:18:00,
2013-06-19 23:23:00,55.8,20.5,29.99,SSW,204,3.1,3.1,25,0.00,,,0.00,VWS V14.01,2013-06-20 06:23:00,
2013-06-19 23:28:00,55.9,20.6,29.99,SSW,198,2.7,2.7,25,0.00,,,0.00,VWS V14.01,2013-06-20 06:28:00,
2013-06-19 23:33:00,55.9,20.6,29.96,SW,224,2.7,2.7,25,0.00,,,0.00,VWS V14.01,2013-06-20 06:33:00,
2013-06-19 23:38:00,55.9,20.6,29.96,SW,231,0.0,0.0,25,0.00,,,0.00,VWS V14.01,2013-06-20 06:38:00,
2013-06-19 23:43:00,55.9,20.6,29.96,South,180,2.7,2.7,25,0.00,,,0.00,VWS V14.01,2013-06-20 06:43:00,
2013-06-19 23:48:00,55.8,20.5,29.96,South,177,0.0,0.0,25,0.00,,,0.00,VWS V14.01,2013-06-20 06:48:00,
2013-06-19 23:53:00,55.6,20.3,29.96,South,177,0.0,0.0,25,0.00,,,0.00,VWS V14.01,2013-06-20 06:53:00,
2013-06-19 23:58:00,55.2,20.0,29.96,South,177,0.0,0.0,25,0.00,,,0.00,VWS V14.01,2013-06-20 06:58:00,